Regional Weather Roundup
Issued by NWS

Home | Current Version | Previous Version | Text Only | Print | Product List | Glossary On
Versions: 1 2 3 4 5 6 7 8 9 10 11 12 13 14 15 16 17 18 19 20 21 22 23 24 25 26 27 28 29 30 31 32 33 34 35 36 37 38 39 40 41 42 43 44 45 46 47 48 49 50
000
ASUS43 KMPX 201610
RWRMN
WEATHER ROUNDUP FOR MINNESOTA
NATIONAL WEATHER SERVICE TWIN CITIES/CHANHASSEN MN
1100 AM CDT WED AUG 20 2014


NOTE: "FAIR" INDICATES FEW OR NO CLOUDS BELOW 12,000 FEET WITH NO
SIGNIFICANT WEATHER AND/OR OBSTRUCTIONS TO VISIBILITY. N/A MEANS
CURRENT SKY AND/OR WEATHER CONDITIONS ARE NOT AVAILABLE.

MNZ060>063-068>070-201700-
   Twin Cities Metro

CITY           SKY/WX    TMP DP  RH WIND       PRES   REMARKS
TWIN CITIES    MOSUNNY   76  65  68 VRB7      29.86R
ST PAUL        SUNNY     74  65  73 E6        29.86S
CRYSTAL        SUNNY     76  64  66 E8        29.84F
BLAINE         PTSUNNY   75  68  78 NE9       29.87R
LAKEVILLE      SUNNY     73  68  83 SE3       29.87R
EDEN PRAIRIE   MOSUNNY   78  66  66 SE8       29.85R
SOUTH ST PAUL  MOSUNNY   74  65  73 E6        29.87R
LAKE ELMO      FAIR      72  64  78 SE6       29.89R
$$
MNZ001>005-007-008-013>017-022>024-027-028-201700-
   Northwest Minnesota

CITY           SKY/WX    TMP DP  RH WIND       PRES   REMARKS
BEMIDJI        CLOUDY    68  63  84 SE8       29.87F
HALLOCK        SUNNY     79  66  65 SE10      29.78F
ROSEAU         SUNNY     75  64  69 SE10      29.83S
WARROAD        PTSUNNY   73  66  78 E7        29.85R
THIEF RVR FALL SUNNY     75  64  69 SE9       29.82F
CROOKSTON      SUNNY     77  66  69 SE10      29.80F
FOSSTON        SUNNY     75  64  69 SE7       29.84S
DETROIT LAKES  SUNNY     73  64  73 SE9       29.84F
MOORHEAD       SUNNY     79  70  73 S9        29.80S
PARK RAPIDS    PTSUNNY   71  63  75 SE9       29.86F
MAHNOMEN       FAIR      73  66  78 SE9       29.83S
$$
MNZ006-009>011-018-025>026-201700-
   North Central Minnesota

CITY           SKY/WX    TMP DP  RH WIND       PRES   REMARKS
BAUDETTE       SUNNY     73  61  65 E8        29.86S
FLAG ISLAND    MOSUNNY   72  63  73 E6        29.84F
INTL FALLS     MOSUNNY   71  60  68 VRB7      29.87F
WASKISH        MOSUNNY   75  64  69 CALM      29.86S
BIG FORK       SUNNY     59 N/A N/A E5        29.89R
LONGVILLE      PTSUNNY   70  63  78 SE6       29.89S
GRAND RAPIDS   PTSUNNY   66  59  77 SE8       29.90R
CRANE LAKE     CLOUDY    64  61  88 CALM      29.91S
ORR            PTSUNNY   66  59  77 CALM      29.87F
COOK           MOSUNNY   66  61  82 E3        29.90S
WALKER         PTSUNNY   70  62  77 S9        29.88S
$$
MNZ012-019>021-037-201700-
   Northeast Minnesota

CITY           SKY/WX    TMP DP  RH WIND       PRES   REMARKS
DULUTH         CLOUDY    68  59  73 CALM      29.90R
ELY            CLOUDY    64  59  82 NE5       29.91R
HIBBING        PTSUNNY   72  57  59 E8        29.89S
EVELETH        CLOUDY    68  57  68 N3        29.90F
DULUTH HARBOR  CLOUDY    66  63  88 SE3       29.90S
TWO HARBORS    CLOUDY    68  57  68 NE5       29.87S
SILVER BAY     SUNNY     66  63  88 N3        29.87F
GRAND MARAIS     N/A     63  60  90 SW5       29.88R
G MARAIS ARPRT CLOUDY    61  55  82 CALM      29.92S
$$
MNZ029>031-032-039>041-046>048-054>057-064-201700-
   West Central Minnesota

CITY           SKY/WX    TMP DP  RH WIND       PRES   REMARKS
FERGUS FALLS   MOSUNNY   77  63  61 S9        29.81R
WHEATON        MOSUNNY   73  66  78 SE10      29.81R
MORRIS         MOSUNNY   79  66  65 SE8       29.80R
ALEXANDRIA     MOSUNNY   74  65  73 E10       29.85S
ELBOW LAKE     FAIR      75  65  70 SE10      29.81F
WADENA         SUNNY     72  64  78 E6        29.84F
GLENWOOD       MOSUNNY   75  66  73 E10       29.84S
APPLETON       SUNNY     81  66  61 SE13      29.79S
BENSON         MOSUNNY   79  66  65 SE8       29.80S
ORTONVILLE     SUNNY     79  66  65 S8        29.81R
MADISON        SUNNY     79  68  69 S8        29.82R
WILLMAR        FAIR      77  64  65 E10       29.83S
$$
MNZ033>034-036-042>043-049>051-058-059-201700-
   Central Minnesota

CITY           SKY/WX    TMP DP  RH WIND       PRES   REMARKS
ST CLOUD       SUNNY     76  65  68 E7        29.85F
SAUK CENTRE    FAIR      73  66  77 E8        29.85S
PAYNESVILLE    SUNNY     72  64  78 NE7       29.84F
AITKIN         PTSUNNY   73  63  68 SE6       29.89S
PINE RIVER     PTSUNNY   70  63  78 SE6       29.91F
BRAINERD       MOSUNNY   71  63  75 VRB5      29.88F
STAPLES        MOSUNNY   70  63  78 SE6       29.86F
LONG PRAIRIE   FAIR      70  64  83 E6        29.86S
LITTLE FALLS   SUNNY     72  63  73 SE6       29.86F
LITCHFIELD     MOSUNNY   79  70  73 E9        29.84S
BUFFALO        SUNNY     76  64  65 NE9       29.85F
MAPLE LAKE     SUNNY     75  68  77 NE10      29.85F
$$
MNZ037-044-045-052-053-201700-
   East Central Minnesota

CITY           SKY/WX    TMP DP  RH WIND       PRES   REMARKS
PRINCETON      SUNNY     75  64  69 E8        29.87S
MORA           MOSUNNY   68  61  77 E5        29.89F
CAMBRIDGE      SUNNY     73  61  64 NE7       29.85F
RUSH CITY      MOSUNNY   68  63  85 NE5       29.88F
MOOSE LAKE     CLOUDY    68  59  73 W3        29.89S
HINCKLEY       CLOUDY    64  61  88 NE6       29.91F
CLOQUET        CLOUDY    66  59  77 S3        29.91R
MCGREGOR       PTSUNNY   68  61  77 S5        29.90F
$$
MNZ071>073-080-081-089-090-097-098-201700-
   Southwest Minnesota

CITY           SKY/WX    TMP DP  RH WIND       PRES   REMARKS
MONTEVIDEO     MOSUNNY   79  70  73 S9        29.82R
GRANITE FALLS  PTSUNNY   77  68  73 SE10      29.84R
CANBY          MOSUNNY   77  66  67 SE9       29.83R
MARSHALL       PTSUNNY   79  64  61 S10       29.82R
REDWOOD FALLS  CLOUDY    78  65  63 S14       29.83R
OLIVIA         PTSUNNY   77  64  65 E8        29.80S
PIPESTONE      MOSUNNY   73  66  78 SE8       29.83R
WINDOM         CLOUDY    73  64  73 SE8       29.84R
WORTHINGTON    CLOUDY    73  14  10 SE8       29.84F
JACKSON        CLOUDY    72  64  78 SE8       29.85S
TRACY          CLOUDY    77  65  67 S10       29.85R
SLAYTON        CLOUDY    73  67  80 SE7       29.86R
$$
MNZ065>067-074>077-082>085-091>093-201700-
   South Central Minnesota

CITY           SKY/WX    TMP DP  RH WIND       PRES   REMARKS
MANKATO        PTSUNNY   75  64  69 SE10      29.84S
NEW ULM        CLOUDY    75  70  83 SE13      29.81F
ST JAMES       CLOUDY    75  66  73 SE6       29.85R
FAIRMONT       CLOUDY    72  63  73 MISG      29.84S
GLENCOE        PTSUNNY   77  66  68 E8        29.85R
FARIBAULT      MOSUNNY   79  63  57 SE5       29.87S
OWATONNA       PTSUNNY   79  64  61 SE5       29.87F
WASECA         PTSUNNY   77  63  61 SE7       29.88S
ALBERT LEA     CLOUDY    75  66  73 SE8       29.87F
$$
MNZ078>079-086>088-094>096-201700-
   Southeast Minnesota

CITY           SKY/WX    TMP DP  RH WIND       PRES   REMARKS
ROCHESTER      MOSUNNY   76  66  71 VRB6      29.91R
RED WING       MOSUNNY   72  64  78 S7        29.87R
STANTON        MOSUNNY   76  66  71 S5        29.86S
DODGE CENTER   MOSUNNY   75  70  83 S3        29.90R
WINONA         PTSUNNY   70  64  83 CALM      29.90R
AUSTIN         PTSUNNY   75  66  73 CALM      29.88F
PRESTON        PTSUNNY   75  70  86 SW3       29.92R
$$
ABBREVIATIONS USED IN REMARKS
   TC - TEMPERATURES IN CELSIUS
  WCI - WIND CHILL INDEX
   HX - HEAT INDEX
  VSB - VISIBILITY
$$


USA.gov is the U.S. government's official web portal to all federal, state and local government web resources and services.